Index of /20260428/WXO-DD/model_gdps/15km/00/186
Name Last modified Size Description
Parent Directory -
20260428T00Z_MSC_GDPS_AbsoluteVorticity_IsbL-0200_LatLon0.15_PT186H.grib2 2026-04-28 04:39 1.5M
20260428T00Z_MSC_GDPS_AbsoluteVorticity_IsbL-0250_LatLon0.15_PT186H.grib2 2026-04-28 04:39 1.3M
20260428T00Z_MSC_GDPS_AbsoluteVorticity_IsbL-0500_LatLon0.15_PT186H.grib2 2026-04-28 04:39 1.5M
20260428T00Z_MSC_GDPS_AbsoluteVorticity_IsbL-0700_LatLon0.15_PT186H.grib2 2026-04-28 04:39 1.3M
20260428T00Z_MSC_GDPS_AbsoluteVorticity_IsbL-0850_LatLon0.15_PT186H.grib2 2026-04-28 04:39 1.6M
20260428T00Z_MSC_GDPS_AirTemp-Max_AGL-2m_LatLon0.15_PT186H.grib2 2026-04-28 04:39 745K
20260428T00Z_MSC_GDPS_AirTemp-Min_AGL-2m_LatLon0.15_PT186H.grib2 2026-04-28 04:39 793K
20260428T00Z_MSC_GDPS_AirTemp_AGL-120m_LatLon0.15_PT186H.grib2 2026-04-28 04:39 909K
20260428T00Z_MSC_GDPS_AirTemp_AGL-2m_LatLon0.15_PT186H.grib2 2026-04-28 04:39 1.0M
20260428T00Z_MSC_GDPS_AirTemp_AGL-40m_LatLon0.15_PT186H.grib2 2026-04-28 04:39 812K
20260428T00Z_MSC_GDPS_AirTemp_AGL-80m_LatLon0.15_PT186H.grib2 2026-04-28 04:39 800K
20260428T00Z_MSC_GDPS_AirTemp_IsbL-0001_LatLon0.15_PT186H.grib2 2026-04-28 04:39 651K
20260428T00Z_MSC_GDPS_AirTemp_IsbL-0005_LatLon0.15_PT186H.grib2 2026-04-28 04:39 683K
20260428T00Z_MSC_GDPS_AirTemp_IsbL-0010_LatLon0.15_PT186H.grib2 2026-04-28 04:39 762K
20260428T00Z_MSC_GDPS_AirTemp_IsbL-0020_LatLon0.15_PT186H.grib2 2026-04-28 04:39 789K
20260428T00Z_MSC_GDPS_AirTemp_IsbL-0030_LatLon0.15_PT186H.grib2 2026-04-28 04:39 839K
20260428T00Z_MSC_GDPS_AirTemp_IsbL-0050_LatLon0.15_PT186H.grib2 2026-04-28 04:39 805K
20260428T00Z_MSC_GDPS_AirTemp_IsbL-0100_LatLon0.15_PT186H.grib2 2026-04-28 04:39 968K
20260428T00Z_MSC_GDPS_AirTemp_IsbL-0150_LatLon0.15_PT186H.grib2 2026-04-28 04:39 969K
20260428T00Z_MSC_GDPS_AirTemp_IsbL-0175_LatLon0.15_PT186H.grib2 2026-04-28 04:39 958K
20260428T00Z_MSC_GDPS_AirTemp_IsbL-0200_LatLon0.15_PT186H.grib2 2026-04-28 04:39 1.0M
20260428T00Z_MSC_GDPS_AirTemp_IsbL-0225_LatLon0.15_PT186H.grib2 2026-04-28 04:39 1.0M
20260428T00Z_MSC_GDPS_AirTemp_IsbL-0250_LatLon0.15_PT186H.grib2 2026-04-28 04:39 1.0M
20260428T00Z_MSC_GDPS_AirTemp_IsbL-0275_LatLon0.15_PT186H.grib2 2026-04-28 04:39 1.0M
20260428T00Z_MSC_GDPS_AirTemp_IsbL-0300_LatLon0.15_PT186H.grib2 2026-04-28 04:39 947K
20260428T00Z_MSC_GDPS_AirTemp_IsbL-0350_LatLon0.15_PT186H.grib2 2026-04-28 04:39 933K
20260428T00Z_MSC_GDPS_AirTemp_IsbL-0400_LatLon0.15_PT186H.grib2 2026-04-28 04:39 945K
20260428T00Z_MSC_GDPS_AirTemp_IsbL-0450_LatLon0.15_PT186H.grib2 2026-04-28 04:39 744K
20260428T00Z_MSC_GDPS_AirTemp_IsbL-0500_LatLon0.15_PT186H.grib2 2026-04-28 04:39 769K
20260428T00Z_MSC_GDPS_AirTemp_IsbL-0550_LatLon0.15_PT186H.grib2 2026-04-28 04:39 804K
20260428T00Z_MSC_GDPS_AirTemp_IsbL-0600_LatLon0.15_PT186H.grib2 2026-04-28 04:39 894K
20260428T00Z_MSC_GDPS_AirTemp_IsbL-0650_LatLon0.15_PT186H.grib2 2026-04-28 04:39 918K
20260428T00Z_MSC_GDPS_AirTemp_IsbL-0700_LatLon0.15_PT186H.grib2 2026-04-28 04:39 956K
20260428T00Z_MSC_GDPS_AirTemp_IsbL-0750_LatLon0.15_PT186H.grib2 2026-04-28 04:39 1.0M
20260428T00Z_MSC_GDPS_AirTemp_IsbL-0800_LatLon0.15_PT186H.grib2 2026-04-28 04:39 1.1M
20260428T00Z_MSC_GDPS_AirTemp_IsbL-0850_LatLon0.15_PT186H.grib2 2026-04-28 04:39 1.1M
20260428T00Z_MSC_GDPS_AirTemp_IsbL-0875_LatLon0.15_PT186H.grib2 2026-04-28 04:39 1.2M
20260428T00Z_MSC_GDPS_AirTemp_IsbL-0900_LatLon0.15_PT186H.grib2 2026-04-28 04:39 1.1M
20260428T00Z_MSC_GDPS_AirTemp_IsbL-0925_LatLon0.15_PT186H.grib2 2026-04-28 04:39 1.1M
20260428T00Z_MSC_GDPS_AirTemp_IsbL-0950_LatLon0.15_PT186H.grib2 2026-04-28 04:39 1.1M
20260428T00Z_MSC_GDPS_AirTemp_IsbL-0970_LatLon0.15_PT186H.grib2 2026-04-28 04:39 1.1M
20260428T00Z_MSC_GDPS_AirTemp_IsbL-0985_LatLon0.15_PT186H.grib2 2026-04-28 04:39 1.1M
20260428T00Z_MSC_GDPS_AirTemp_IsbL-1000_LatLon0.15_PT186H.grib2 2026-04-28 04:39 1.1M
20260428T00Z_MSC_GDPS_AirTemp_IsbL-1015_LatLon0.15_PT186H.grib2 2026-04-28 04:39 1.1M
20260428T00Z_MSC_GDPS_Albedo_Sfc_LatLon0.15_PT186H.grib2 2026-04-28 04:39 246K
20260428T00Z_MSC_GDPS_CAPE_Sfc_LatLon0.15_PT186H.grib2 2026-04-28 04:39 4.0M
20260428T00Z_MSC_GDPS_CIN_Sfc_LatLon0.15_PT186H.grib2 2026-04-28 04:39 2.8M
20260428T00Z_MSC_GDPS_CloudWater_EAtm_LatLon0.15_PT186H.grib2 2026-04-28 04:39 536K
20260428T00Z_MSC_GDPS_ConvectivePrecip-Accum_Sfc_LatLon0.15_PT186H.grib2 2026-04-28 04:39 3.9M
20260428T00Z_MSC_GDPS_DewPointDepression_AGL-2m_LatLon0.15_PT186H.grib2 2026-04-28 04:39 761K
20260428T00Z_MSC_GDPS_DewPointDepression_IsbL-0010_LatLon0.15_PT186H.grib2 2026-04-28 04:39 66K
20260428T00Z_MSC_GDPS_DewPointDepression_IsbL-0020_LatLon0.15_PT186H.grib2 2026-04-28 04:39 68K
20260428T00Z_MSC_GDPS_DewPointDepression_IsbL-0030_LatLon0.15_PT186H.grib2 2026-04-28 04:39 88K
20260428T00Z_MSC_GDPS_DewPointDepression_IsbL-0050_LatLon0.15_PT186H.grib2 2026-04-28 04:39 382K
20260428T00Z_MSC_GDPS_DewPointDepression_IsbL-0100_LatLon0.15_PT186H.grib2 2026-04-28 04:39 396K
20260428T00Z_MSC_GDPS_DewPointDepression_IsbL-0150_LatLon0.15_PT186H.grib2 2026-04-28 04:39 474K
20260428T00Z_MSC_GDPS_DewPointDepression_IsbL-0175_LatLon0.15_PT186H.grib2 2026-04-28 04:39 581K
20260428T00Z_MSC_GDPS_DewPointDepression_IsbL-0200_LatLon0.15_PT186H.grib2 2026-04-28 04:39 692K
20260428T00Z_MSC_GDPS_DewPointDepression_IsbL-0225_LatLon0.15_PT186H.grib2 2026-04-28 04:39 782K
20260428T00Z_MSC_GDPS_DewPointDepression_IsbL-0250_LatLon0.15_PT186H.grib2 2026-04-28 04:39 858K
20260428T00Z_MSC_GDPS_DewPointDepression_IsbL-0275_LatLon0.15_PT186H.grib2 2026-04-28 04:39 877K
20260428T00Z_MSC_GDPS_DewPointDepression_IsbL-0300_LatLon0.15_PT186H.grib2 2026-04-28 04:39 923K
20260428T00Z_MSC_GDPS_DewPointDepression_IsbL-0350_LatLon0.15_PT186H.grib2 2026-04-28 04:39 960K
20260428T00Z_MSC_GDPS_DewPointDepression_IsbL-0400_LatLon0.15_PT186H.grib2 2026-04-28 04:39 1.0M
20260428T00Z_MSC_GDPS_DewPointDepression_IsbL-0450_LatLon0.15_PT186H.grib2 2026-04-28 04:39 1.0M
20260428T00Z_MSC_GDPS_DewPointDepression_IsbL-0500_LatLon0.15_PT186H.grib2 2026-04-28 04:39 1.0M
20260428T00Z_MSC_GDPS_DewPointDepression_IsbL-0550_LatLon0.15_PT186H.grib2 2026-04-28 04:39 1.0M
20260428T00Z_MSC_GDPS_DewPointDepression_IsbL-0600_LatLon0.15_PT186H.grib2 2026-04-28 04:39 1.0M
20260428T00Z_MSC_GDPS_DewPointDepression_IsbL-0650_LatLon0.15_PT186H.grib2 2026-04-28 04:39 1.1M
20260428T00Z_MSC_GDPS_DewPointDepression_IsbL-0700_LatLon0.15_PT186H.grib2 2026-04-28 04:39 1.1M
20260428T00Z_MSC_GDPS_DewPointDepression_IsbL-0750_LatLon0.15_PT186H.grib2 2026-04-28 04:39 1.1M
20260428T00Z_MSC_GDPS_DewPointDepression_IsbL-0800_LatLon0.15_PT186H.grib2 2026-04-28 04:39 1.2M
20260428T00Z_MSC_GDPS_DewPointDepression_IsbL-0850_LatLon0.15_PT186H.grib2 2026-04-28 04:39 1.2M
20260428T00Z_MSC_GDPS_DewPointDepression_IsbL-0875_LatLon0.15_PT186H.grib2 2026-04-28 04:39 1.1M
20260428T00Z_MSC_GDPS_DewPointDepression_IsbL-0900_LatLon0.15_PT186H.grib2 2026-04-28 04:39 1.1M
20260428T00Z_MSC_GDPS_DewPointDepression_IsbL-0925_LatLon0.15_PT186H.grib2 2026-04-28 04:39 1.0M
20260428T00Z_MSC_GDPS_DewPointDepression_IsbL-0950_LatLon0.15_PT186H.grib2 2026-04-28 04:39 1.0M
20260428T00Z_MSC_GDPS_DewPointDepression_IsbL-0970_LatLon0.15_PT186H.grib2 2026-04-28 04:39 1.0M
20260428T00Z_MSC_GDPS_DewPointDepression_IsbL-0985_LatLon0.15_PT186H.grib2 2026-04-28 04:39 1.0M
20260428T00Z_MSC_GDPS_DewPointDepression_IsbL-1000_LatLon0.15_PT186H.grib2 2026-04-28 04:39 1.0M
20260428T00Z_MSC_GDPS_DewPointDepression_IsbL-1015_LatLon0.15_PT186H.grib2 2026-04-28 04:39 919K
20260428T00Z_MSC_GDPS_DewPoint_AGL-2m_LatLon0.15_PT186H.grib2 2026-04-28 04:39 610K
20260428T00Z_MSC_GDPS_DownwardLongwaveRadiationFlux-Accum_Sfc_LatLon0.15_PT186H.grib2 2026-04-28 04:39 657K
20260428T00Z_MSC_GDPS_DownwardShortwaveRadiationFlux-Accum_NTAtm_LatLon0.15_PT186H.grib2 2026-04-28 04:39 241K
20260428T00Z_MSC_GDPS_DownwardShortwaveRadiationFlux-Accum_Sfc_LatLon0.15_PT186H.grib2 2026-04-28 04:39 848K
20260428T00Z_MSC_GDPS_FreezingRain-Accum12h_Sfc_LatLon0.15_PT186H.grib2 2026-04-28 04:39 106K
20260428T00Z_MSC_GDPS_FreezingRain-Accum24h_Sfc_LatLon0.15_PT186H.grib2 2026-04-28 04:39 147K
20260428T00Z_MSC_GDPS_FreezingRain-Accum6h_Sfc_LatLon0.15_PT186H.grib2 2026-04-28 04:39 79K
20260428T00Z_MSC_GDPS_FreezingRain-Accum_Sfc_LatLon0.15_PT186H.grib2 2026-04-28 04:39 468K
20260428T00Z_MSC_GDPS_GeopotentialHeight_IsbL-0001_LatLon0.15_PT186H.grib2 2026-04-28 04:39 420K
20260428T00Z_MSC_GDPS_GeopotentialHeight_IsbL-0005_LatLon0.15_PT186H.grib2 2026-04-28 04:39 482K
20260428T00Z_MSC_GDPS_GeopotentialHeight_IsbL-0010_LatLon0.15_PT186H.grib2 2026-04-28 04:39 475K
20260428T00Z_MSC_GDPS_GeopotentialHeight_IsbL-0020_LatLon0.15_PT186H.grib2 2026-04-28 04:39 410K
20260428T00Z_MSC_GDPS_GeopotentialHeight_IsbL-0030_LatLon0.15_PT186H.grib2 2026-04-28 04:39 566K
20260428T00Z_MSC_GDPS_GeopotentialHeight_IsbL-0050_LatLon0.15_PT186H.grib2 2026-04-28 04:39 569K
20260428T00Z_MSC_GDPS_GeopotentialHeight_IsbL-0100_LatLon0.15_PT186H.grib2 2026-04-28 04:39 611K
20260428T00Z_MSC_GDPS_GeopotentialHeight_IsbL-0150_LatLon0.15_PT186H.grib2 2026-04-28 04:39 630K
20260428T00Z_MSC_GDPS_GeopotentialHeight_IsbL-0175_LatLon0.15_PT186H.grib2 2026-04-28 04:39 634K
20260428T00Z_MSC_GDPS_GeopotentialHeight_IsbL-0200_LatLon0.15_PT186H.grib2 2026-04-28 04:39 639K
20260428T00Z_MSC_GDPS_GeopotentialHeight_IsbL-0225_LatLon0.15_PT186H.grib2 2026-04-28 04:39 637K
20260428T00Z_MSC_GDPS_GeopotentialHeight_IsbL-0250_LatLon0.15_PT186H.grib2 2026-04-28 04:39 643K
20260428T00Z_MSC_GDPS_GeopotentialHeight_IsbL-0275_LatLon0.15_PT186H.grib2 2026-04-28 04:39 643K
20260428T00Z_MSC_GDPS_GeopotentialHeight_IsbL-0300_LatLon0.15_PT186H.grib2 2026-04-28 04:39 641K
20260428T00Z_MSC_GDPS_GeopotentialHeight_IsbL-0350_LatLon0.15_PT186H.grib2 2026-04-28 04:39 629K
20260428T00Z_MSC_GDPS_GeopotentialHeight_IsbL-0400_LatLon0.15_PT186H.grib2 2026-04-28 04:39 621K
20260428T00Z_MSC_GDPS_GeopotentialHeight_IsbL-0450_LatLon0.15_PT186H.grib2 2026-04-28 04:39 611K
20260428T00Z_MSC_GDPS_GeopotentialHeight_IsbL-0500_LatLon0.15_PT186H.grib2 2026-04-28 04:39 531K
20260428T00Z_MSC_GDPS_GeopotentialHeight_IsbL-0550_LatLon0.15_PT186H.grib2 2026-04-28 04:39 527K
20260428T00Z_MSC_GDPS_GeopotentialHeight_IsbL-0600_LatLon0.15_PT186H.grib2 2026-04-28 04:39 687K
20260428T00Z_MSC_GDPS_GeopotentialHeight_IsbL-0650_LatLon0.15_PT186H.grib2 2026-04-28 04:39 688K
20260428T00Z_MSC_GDPS_GeopotentialHeight_IsbL-0700_LatLon0.15_PT186H.grib2 2026-04-28 04:39 691K
20260428T00Z_MSC_GDPS_GeopotentialHeight_IsbL-0750_LatLon0.15_PT186H.grib2 2026-04-28 04:39 690K
20260428T00Z_MSC_GDPS_GeopotentialHeight_IsbL-0800_LatLon0.15_PT186H.grib2 2026-04-28 04:39 704K
20260428T00Z_MSC_GDPS_GeopotentialHeight_IsbL-0850_LatLon0.15_PT186H.grib2 2026-04-28 04:39 710K
20260428T00Z_MSC_GDPS_GeopotentialHeight_IsbL-0875_LatLon0.15_PT186H.grib2 2026-04-28 04:39 715K
20260428T00Z_MSC_GDPS_GeopotentialHeight_IsbL-0900_LatLon0.15_PT186H.grib2 2026-04-28 04:39 725K
20260428T00Z_MSC_GDPS_GeopotentialHeight_IsbL-0925_LatLon0.15_PT186H.grib2 2026-04-28 04:39 729K
20260428T00Z_MSC_GDPS_GeopotentialHeight_IsbL-0950_LatLon0.15_PT186H.grib2 2026-04-28 04:39 739K
20260428T00Z_MSC_GDPS_GeopotentialHeight_IsbL-0970_LatLon0.15_PT186H.grib2 2026-04-28 04:39 750K
20260428T00Z_MSC_GDPS_GeopotentialHeight_IsbL-0985_LatLon0.15_PT186H.grib2 2026-04-28 04:39 765K
20260428T00Z_MSC_GDPS_GeopotentialHeight_IsbL-1000_LatLon0.15_PT186H.grib2 2026-04-28 04:39 785K
20260428T00Z_MSC_GDPS_GeopotentialHeight_IsbL-1015_LatLon0.15_PT186H.grib2 2026-04-28 04:39 808K
20260428T00Z_MSC_GDPS_Humidex_Sfc_LatLon0.15_PT186H.grib2 2026-04-28 04:39 5.3M
20260428T00Z_MSC_GDPS_IcePellets-Accum12h_Sfc_LatLon0.15_PT186H.grib2 2026-04-28 04:39 31K
20260428T00Z_MSC_GDPS_IcePellets-Accum24h_Sfc_LatLon0.15_PT186H.grib2 2026-04-28 04:39 44K
20260428T00Z_MSC_GDPS_IcePellets-Accum6h_Sfc_LatLon0.15_PT186H.grib2 2026-04-28 04:39 21K
20260428T00Z_MSC_GDPS_IcePellets-Accum_Sfc_LatLon0.15_PT186H.grib2 2026-04-28 04:39 151K
20260428T00Z_MSC_GDPS_KIndex_Sfc_LatLon0.15_PT186H.grib2 2026-04-28 04:39 6.5M
20260428T00Z_MSC_GDPS_LatentHeatNetFlux_Sfc_LatLon0.15_PT186H.grib2 2026-04-28 04:39 692K
20260428T00Z_MSC_GDPS_LiftedIndex-MU-VT_IsbL-0500_LatLon0.15_PT186H.grib2 2026-04-28 04:39 5.4M
20260428T00Z_MSC_GDPS_NetLongwaveRadiationFlux-Accum_Sfc_LatLon0.15_PT186H.grib2 2026-04-28 04:39 877K
20260428T00Z_MSC_GDPS_NetShortwaveRadiationFlux-Accum_Sfc_LatLon0.15_PT186H.grib2 2026-04-28 04:39 845K
20260428T00Z_MSC_GDPS_O3MixingRatio_LatLon0.15_PT186H.grib2 2026-04-28 04:55 2.2M
20260428T00Z_MSC_GDPS_O3_EAtm_LatLon0.15_PT186H.grib2 2026-04-28 04:55 2.4M
20260428T00Z_MSC_GDPS_PlanetaryBoundaryLayerHeight_Sfc_LatLon0.15_PT186H.grib2 2026-04-28 04:39 2.4M
20260428T00Z_MSC_GDPS_Precip-Accum12h_Sfc_LatLon0.15_PT186H.grib2 2026-04-28 04:39 4.0M
20260428T00Z_MSC_GDPS_Precip-Accum24h_Sfc_LatLon0.15_PT186H.grib2 2026-04-28 04:39 4.6M
20260428T00Z_MSC_GDPS_Precip-Accum6h_Sfc_LatLon0.15_PT186H.grib2 2026-04-28 04:39 3.6M
20260428T00Z_MSC_GDPS_Precip-Accum_Sfc_LatLon0.15_PT186H.grib2 2026-04-28 04:39 5.4M
20260428T00Z_MSC_GDPS_PrecipRate_Sfc_LatLon0.15_PT186H.grib2 2026-04-28 04:39 3.0M
20260428T00Z_MSC_GDPS_PrecipType-Instant_Sfc_LatLon0.15_PT186H.grib2 2026-04-28 04:39 1.6M
20260428T00Z_MSC_GDPS_Pressure_MSL_LatLon0.15_PT186H.grib2 2026-04-28 04:39 830K
20260428T00Z_MSC_GDPS_Pressure_PVU-1.5_LatLon0.15_PT186H.grib2 2026-04-28 04:39 5.8M
20260428T00Z_MSC_GDPS_Pressure_PVU-1_LatLon0.15_PT186H.grib2 2026-04-28 04:39 6.0M
20260428T00Z_MSC_GDPS_Pressure_PVU-2_LatLon0.15_PT186H.grib2 2026-04-28 04:39 5.7M
20260428T00Z_MSC_GDPS_Pressure_Sfc_LatLon0.15_PT186H.grib2 2026-04-28 04:39 1.1M
20260428T00Z_MSC_GDPS_RadiativeTemp_Sfc_LatLon0.15_PT186H.grib2 2026-04-28 04:39 495K
20260428T00Z_MSC_GDPS_Rain-Accum12h_Sfc_LatLon0.15_PT186H.grib2 2026-04-28 04:39 2.7M
20260428T00Z_MSC_GDPS_Rain-Accum24h_Sfc_LatLon0.15_PT186H.grib2 2026-04-28 04:39 3.2M
20260428T00Z_MSC_GDPS_Rain-Accum6h_Sfc_LatLon0.15_PT186H.grib2 2026-04-28 04:39 2.3M
20260428T00Z_MSC_GDPS_Rain-Accum_Sfc_LatLon0.15_PT186H.grib2 2026-04-28 04:39 4.2M
20260428T00Z_MSC_GDPS_RelativeHumidity_AGL-2m_LatLon0.15_PT186H.grib2 2026-04-28 04:39 1.0M
20260428T00Z_MSC_GDPS_RelativeHumidity_IsbL-0010_LatLon0.15_PT186H.grib2 2026-04-28 04:39 190K
20260428T00Z_MSC_GDPS_RelativeHumidity_IsbL-0020_LatLon0.15_PT186H.grib2 2026-04-28 04:39 157K
20260428T00Z_MSC_GDPS_RelativeHumidity_IsbL-0030_LatLon0.15_PT186H.grib2 2026-04-28 04:39 262K
20260428T00Z_MSC_GDPS_RelativeHumidity_IsbL-0050_LatLon0.15_PT186H.grib2 2026-04-28 04:39 333K
20260428T00Z_MSC_GDPS_RelativeHumidity_IsbL-0100_LatLon0.15_PT186H.grib2 2026-04-28 04:39 497K
20260428T00Z_MSC_GDPS_RelativeHumidity_IsbL-0150_LatLon0.15_PT186H.grib2 2026-04-28 04:39 662K
20260428T00Z_MSC_GDPS_RelativeHumidity_IsbL-0175_LatLon0.15_PT186H.grib2 2026-04-28 04:39 795K
20260428T00Z_MSC_GDPS_RelativeHumidity_IsbL-0200_LatLon0.15_PT186H.grib2 2026-04-28 04:39 720K
20260428T00Z_MSC_GDPS_RelativeHumidity_IsbL-0225_LatLon0.15_PT186H.grib2 2026-04-28 04:39 796K
20260428T00Z_MSC_GDPS_RelativeHumidity_IsbL-0250_LatLon0.15_PT186H.grib2 2026-04-28 04:39 864K
20260428T00Z_MSC_GDPS_RelativeHumidity_IsbL-0275_LatLon0.15_PT186H.grib2 2026-04-28 04:39 889K
20260428T00Z_MSC_GDPS_RelativeHumidity_IsbL-0300_LatLon0.15_PT186H.grib2 2026-04-28 04:39 933K
20260428T00Z_MSC_GDPS_RelativeHumidity_IsbL-0350_LatLon0.15_PT186H.grib2 2026-04-28 04:39 955K
20260428T00Z_MSC_GDPS_RelativeHumidity_IsbL-0400_LatLon0.15_PT186H.grib2 2026-04-28 04:39 1.0M
20260428T00Z_MSC_GDPS_RelativeHumidity_IsbL-0450_LatLon0.15_PT186H.grib2 2026-04-28 04:39 1.0M
20260428T00Z_MSC_GDPS_RelativeHumidity_IsbL-0500_LatLon0.15_PT186H.grib2 2026-04-28 04:39 1.0M
20260428T00Z_MSC_GDPS_RelativeHumidity_IsbL-0550_LatLon0.15_PT186H.grib2 2026-04-28 04:39 1.0M
20260428T00Z_MSC_GDPS_RelativeHumidity_IsbL-0600_LatLon0.15_PT186H.grib2 2026-04-28 04:39 1.0M
20260428T00Z_MSC_GDPS_RelativeHumidity_IsbL-0650_LatLon0.15_PT186H.grib2 2026-04-28 04:39 1.1M
20260428T00Z_MSC_GDPS_RelativeHumidity_IsbL-0700_LatLon0.15_PT186H.grib2 2026-04-28 04:39 1.1M
20260428T00Z_MSC_GDPS_RelativeHumidity_IsbL-0750_LatLon0.15_PT186H.grib2 2026-04-28 04:39 1.2M
20260428T00Z_MSC_GDPS_RelativeHumidity_IsbL-0800_LatLon0.15_PT186H.grib2 2026-04-28 04:39 1.2M
20260428T00Z_MSC_GDPS_RelativeHumidity_IsbL-0850_LatLon0.15_PT186H.grib2 2026-04-28 04:39 1.3M
20260428T00Z_MSC_GDPS_RelativeHumidity_IsbL-0875_LatLon0.15_PT186H.grib2 2026-04-28 04:39 1.3M
20260428T00Z_MSC_GDPS_RelativeHumidity_IsbL-0900_LatLon0.15_PT186H.grib2 2026-04-28 04:39 1.2M
20260428T00Z_MSC_GDPS_RelativeHumidity_IsbL-0925_LatLon0.15_PT186H.grib2 2026-04-28 04:39 1.2M
20260428T00Z_MSC_GDPS_RelativeHumidity_IsbL-0950_LatLon0.15_PT186H.grib2 2026-04-28 04:39 1.2M
20260428T00Z_MSC_GDPS_RelativeHumidity_IsbL-0970_LatLon0.15_PT186H.grib2 2026-04-28 04:39 1.2M
20260428T00Z_MSC_GDPS_RelativeHumidity_IsbL-0985_LatLon0.15_PT186H.grib2 2026-04-28 04:39 1.2M
20260428T00Z_MSC_GDPS_RelativeHumidity_IsbL-1000_LatLon0.15_PT186H.grib2 2026-04-28 04:39 1.1M
20260428T00Z_MSC_GDPS_RelativeHumidity_IsbL-1015_LatLon0.15_PT186H.grib2 2026-04-28 04:39 1.0M
20260428T00Z_MSC_GDPS_RelativeVorticity_IsbL-0200_LatLon0.15_PT186H.grib2 2026-04-28 04:39 1.5M
20260428T00Z_MSC_GDPS_RelativeVorticity_IsbL-0250_LatLon0.15_PT186H.grib2 2026-04-28 04:39 1.3M
20260428T00Z_MSC_GDPS_RelativeVorticity_IsbL-0500_LatLon0.15_PT186H.grib2 2026-04-28 04:39 1.5M
20260428T00Z_MSC_GDPS_RelativeVorticity_IsbL-0700_LatLon0.15_PT186H.grib2 2026-04-28 04:39 1.3M
20260428T00Z_MSC_GDPS_RelativeVorticity_IsbL-0850_LatLon0.15_PT186H.grib2 2026-04-28 04:39 1.6M
20260428T00Z_MSC_GDPS_Runoff-Accum_Sfc_LatLon0.15_PT186H.grib2 2026-04-28 04:39 126K
20260428T00Z_MSC_GDPS_SensibleHeatNetFlux_Sfc_LatLon0.15_PT186H.grib2 2026-04-28 04:39 471K
20260428T00Z_MSC_GDPS_ShowalterIndex_IsbL-0500_LatLon0.15_PT186H.grib2 2026-04-28 04:39 6.2M
20260428T00Z_MSC_GDPS_Snow-Accum12h_Sfc_LatLon0.15_PT186H.grib2 2026-04-28 04:39 1.6M
20260428T00Z_MSC_GDPS_Snow-Accum24h_Sfc_LatLon0.15_PT186H.grib2 2026-04-28 04:39 1.6M
20260428T00Z_MSC_GDPS_Snow-Accum6h_Sfc_LatLon0.15_PT186H.grib2 2026-04-28 04:39 1.4M
20260428T00Z_MSC_GDPS_Snow-Accum_Sfc_LatLon0.15_PT186H.grib2 2026-04-28 04:39 2.1M
20260428T00Z_MSC_GDPS_SnowDensity_Sfc_LatLon0.15_PT186H.grib2 2026-04-28 04:39 263K
20260428T00Z_MSC_GDPS_SnowDepth_Sfc_LatLon0.15_PT186H.grib2 2026-04-28 04:39 1.7M
20260428T00Z_MSC_GDPS_SoilTemp_DBS-0to10cm_LatLon0.15_PT186H.grib2 2026-04-28 04:39 514K
20260428T00Z_MSC_GDPS_SoilTemp_Sfc_LatLon0.15_PT186H.grib2 2026-04-28 04:39 580K
20260428T00Z_MSC_GDPS_SoilVolumetricIceContent_Sfc_LatLon0.15_PT186H.grib2 2026-04-28 04:39 192K
20260428T00Z_MSC_GDPS_SoilVolumetricWaterContent_DBS-0to10cm_LatLon0.15_PT186H.grib2 2026-04-28 04:39 591K
20260428T00Z_MSC_GDPS_SoilVolumetricWaterContent_DBS-0to1cm_LatLon0.15_PT186H.grib2 2026-04-28 04:39 645K
20260428T00Z_MSC_GDPS_SpecificHumidity_AGL-120m_LatLon0.15_PT186H.grib2 2026-04-28 04:39 1.1M
20260428T00Z_MSC_GDPS_SpecificHumidity_AGL-2m_LatLon0.15_PT186H.grib2 2026-04-28 04:39 1.2M
20260428T00Z_MSC_GDPS_SpecificHumidity_AGL-40m_LatLon0.15_PT186H.grib2 2026-04-28 04:39 1.1M
20260428T00Z_MSC_GDPS_SpecificHumidity_AGL-80m_LatLon0.15_PT186H.grib2 2026-04-28 04:39 1.1M
20260428T00Z_MSC_GDPS_SpecificHumidity_IsbL-0001_LatLon0.15_PT186H.grib2 2026-04-28 04:39 1.2M
20260428T00Z_MSC_GDPS_SpecificHumidity_IsbL-0005_LatLon0.15_PT186H.grib2 2026-04-28 04:39 1.0M
20260428T00Z_MSC_GDPS_SpecificHumidity_IsbL-0010_LatLon0.15_PT186H.grib2 2026-04-28 04:39 1.2M
20260428T00Z_MSC_GDPS_SpecificHumidity_IsbL-0020_LatLon0.15_PT186H.grib2 2026-04-28 04:39 1.2M
20260428T00Z_MSC_GDPS_SpecificHumidity_IsbL-0030_LatLon0.15_PT186H.grib2 2026-04-28 04:39 1.5M
20260428T00Z_MSC_GDPS_SpecificHumidity_IsbL-0050_LatLon0.15_PT186H.grib2 2026-04-28 04:39 1.5M
20260428T00Z_MSC_GDPS_SpecificHumidity_IsbL-0100_LatLon0.15_PT186H.grib2 2026-04-28 04:39 1.3M
20260428T00Z_MSC_GDPS_SpecificHumidity_IsbL-0150_LatLon0.15_PT186H.grib2 2026-04-28 04:39 1.3M
20260428T00Z_MSC_GDPS_SpecificHumidity_IsbL-0175_LatLon0.15_PT186H.grib2 2026-04-28 04:39 1.2M
20260428T00Z_MSC_GDPS_SpecificHumidity_IsbL-0200_LatLon0.15_PT186H.grib2 2026-04-28 04:39 1.3M
20260428T00Z_MSC_GDPS_SpecificHumidity_IsbL-0225_LatLon0.15_PT186H.grib2 2026-04-28 04:39 1.3M
20260428T00Z_MSC_GDPS_SpecificHumidity_IsbL-0250_LatLon0.15_PT186H.grib2 2026-04-28 04:39 1.4M
20260428T00Z_MSC_GDPS_SpecificHumidity_IsbL-0275_LatLon0.15_PT186H.grib2 2026-04-28 04:39 1.3M
20260428T00Z_MSC_GDPS_SpecificHumidity_IsbL-0300_LatLon0.15_PT186H.grib2 2026-04-28 04:39 1.2M
20260428T00Z_MSC_GDPS_SpecificHumidity_IsbL-0350_LatLon0.15_PT186H.grib2 2026-04-28 04:39 1.2M
20260428T00Z_MSC_GDPS_SpecificHumidity_IsbL-0400_LatLon0.15_PT186H.grib2 2026-04-28 04:39 1.5M
20260428T00Z_MSC_GDPS_SpecificHumidity_IsbL-0450_LatLon0.15_PT186H.grib2 2026-04-28 04:39 1.6M
20260428T00Z_MSC_GDPS_SpecificHumidity_IsbL-0500_LatLon0.15_PT186H.grib2 2026-04-28 04:39 1.4M
20260428T00Z_MSC_GDPS_SpecificHumidity_IsbL-0550_LatLon0.15_PT186H.grib2 2026-04-28 04:39 1.6M
20260428T00Z_MSC_GDPS_SpecificHumidity_IsbL-0600_LatLon0.15_PT186H.grib2 2026-04-28 04:39 1.7M
20260428T00Z_MSC_GDPS_SpecificHumidity_IsbL-0650_LatLon0.15_PT186H.grib2 2026-04-28 04:39 1.5M
20260428T00Z_MSC_GDPS_SpecificHumidity_IsbL-0700_LatLon0.15_PT186H.grib2 2026-04-28 04:39 1.6M
20260428T00Z_MSC_GDPS_SpecificHumidity_IsbL-0750_LatLon0.15_PT186H.grib2 2026-04-28 04:39 1.7M
20260428T00Z_MSC_GDPS_SpecificHumidity_IsbL-0800_LatLon0.15_PT186H.grib2 2026-04-28 04:39 1.8M
20260428T00Z_MSC_GDPS_SpecificHumidity_IsbL-0850_LatLon0.15_PT186H.grib2 2026-04-28 04:39 1.9M
20260428T00Z_MSC_GDPS_SpecificHumidity_IsbL-0875_LatLon0.15_PT186H.grib2 2026-04-28 04:39 1.9M
20260428T00Z_MSC_GDPS_SpecificHumidity_IsbL-0900_LatLon0.15_PT186H.grib2 2026-04-28 04:39 1.9M
20260428T00Z_MSC_GDPS_SpecificHumidity_IsbL-0925_LatLon0.15_PT186H.grib2 2026-04-28 04:39 1.6M
20260428T00Z_MSC_GDPS_SpecificHumidity_IsbL-0950_LatLon0.15_PT186H.grib2 2026-04-28 04:39 1.6M
20260428T00Z_MSC_GDPS_SpecificHumidity_IsbL-0970_LatLon0.15_PT186H.grib2 2026-04-28 04:39 1.5M
20260428T00Z_MSC_GDPS_SpecificHumidity_IsbL-0985_LatLon0.15_PT186H.grib2 2026-04-28 04:39 1.5M
20260428T00Z_MSC_GDPS_SpecificHumidity_IsbL-1000_LatLon0.15_PT186H.grib2 2026-04-28 04:39 1.5M
20260428T00Z_MSC_GDPS_SpecificHumidity_IsbL-1015_LatLon0.15_PT186H.grib2 2026-04-28 04:39 1.5M
20260428T00Z_MSC_GDPS_SpecificHumidity_Sfc_LatLon0.15_PT186H.grib2 2026-04-28 04:39 670K
20260428T00Z_MSC_GDPS_Thickness_IsbL-0850to0700_LatLon0.15_PT186H.grib2 2026-04-28 04:39 472K
20260428T00Z_MSC_GDPS_Thickness_IsbL-1000to0500_LatLon0.15_PT186H.grib2 2026-04-28 04:39 377K
20260428T00Z_MSC_GDPS_Thickness_IsbL-1000to0850_LatLon0.15_PT186H.grib2 2026-04-28 04:39 492K
20260428T00Z_MSC_GDPS_TotalCloudCover_Sfc_LatLon0.15_PT186H.grib2 2026-04-28 04:39 823K
20260428T00Z_MSC_GDPS_TotalTotalsIndex_Sfc_LatLon0.15_PT186H.grib2 2026-04-28 04:39 6.2M
20260428T00Z_MSC_GDPS_UVIndex-ClearSky-Max24h_Sfc_LatLon0.15_PT186H.grib2 2026-04-28 04:55 2.2M
20260428T00Z_MSC_GDPS_UVIndex-ClearSky_Sfc_LatLon0.15_PT186H.grib2 2026-04-28 04:55 1.0M
20260428T00Z_MSC_GDPS_UVIndex-Max24h_Sfc_LatLon0.15_PT186H.grib2 2026-04-28 04:55 3.2M
20260428T00Z_MSC_GDPS_UVIndex_Sfc_LatLon0.15_PT186H.grib2 2026-04-28 04:55 1.5M
20260428T00Z_MSC_GDPS_UpwardLongwaveRadiationFlux_NTAtm_LatLon0.15_PT186H.grib2 2026-04-28 04:39 834K
20260428T00Z_MSC_GDPS_VerticalVelocity_IsbL-0200_LatLon0.15_PT186H.grib2 2026-04-28 04:39 937K
20260428T00Z_MSC_GDPS_VerticalVelocity_IsbL-0250_LatLon0.15_PT186H.grib2 2026-04-28 04:39 1.1M
20260428T00Z_MSC_GDPS_VerticalVelocity_IsbL-0500_LatLon0.15_PT186H.grib2 2026-04-28 04:39 1.3M
20260428T00Z_MSC_GDPS_VerticalVelocity_IsbL-0600_LatLon0.15_PT186H.grib2 2026-04-28 04:39 1.4M
20260428T00Z_MSC_GDPS_VerticalVelocity_IsbL-0700_LatLon0.15_PT186H.grib2 2026-04-28 04:39 1.1M
20260428T00Z_MSC_GDPS_VerticalVelocity_IsbL-0850_LatLon0.15_PT186H.grib2 2026-04-28 04:39 1.3M
20260428T00Z_MSC_GDPS_WindChill_Sfc_LatLon0.15_PT186H.grib2 2026-04-28 04:39 5.3M
20260428T00Z_MSC_GDPS_WindDir_AGL-10m_LatLon0.15_PT186H.grib2 2026-04-28 04:39 1.3M
20260428T00Z_MSC_GDPS_WindDir_AGL-120m_LatLon0.15_PT186H.grib2 2026-04-28 04:39 1.4M
20260428T00Z_MSC_GDPS_WindDir_AGL-40m_LatLon0.15_PT186H.grib2 2026-04-28 04:39 1.4M
20260428T00Z_MSC_GDPS_WindDir_AGL-80m_LatLon0.15_PT186H.grib2 2026-04-28 04:39 1.4M
20260428T00Z_MSC_GDPS_WindDir_IsbL-0001_LatLon0.15_PT186H.grib2 2026-04-28 04:39 675K
20260428T00Z_MSC_GDPS_WindDir_IsbL-0005_LatLon0.15_PT186H.grib2 2026-04-28 04:39 812K
20260428T00Z_MSC_GDPS_WindDir_IsbL-0010_LatLon0.15_PT186H.grib2 2026-04-28 04:39 836K
20260428T00Z_MSC_GDPS_WindDir_IsbL-0020_LatLon0.15_PT186H.grib2 2026-04-28 04:39 951K
20260428T00Z_MSC_GDPS_WindDir_IsbL-0030_LatLon0.15_PT186H.grib2 2026-04-28 04:39 941K
20260428T00Z_MSC_GDPS_WindDir_IsbL-0050_LatLon0.15_PT186H.grib2 2026-04-28 04:39 948K
20260428T00Z_MSC_GDPS_WindDir_IsbL-0100_LatLon0.15_PT186H.grib2 2026-04-28 04:39 1.0M
20260428T00Z_MSC_GDPS_WindDir_IsbL-0150_LatLon0.15_PT186H.grib2 2026-04-28 04:39 1.0M
20260428T00Z_MSC_GDPS_WindDir_IsbL-0175_LatLon0.15_PT186H.grib2 2026-04-28 04:39 1.1M
20260428T00Z_MSC_GDPS_WindDir_IsbL-0200_LatLon0.15_PT186H.grib2 2026-04-28 04:39 1.1M
20260428T00Z_MSC_GDPS_WindDir_IsbL-0225_LatLon0.15_PT186H.grib2 2026-04-28 04:39 1.1M
20260428T00Z_MSC_GDPS_WindDir_IsbL-0250_LatLon0.15_PT186H.grib2 2026-04-28 04:39 1.1M
20260428T00Z_MSC_GDPS_WindDir_IsbL-0275_LatLon0.15_PT186H.grib2 2026-04-28 04:39 1.2M
20260428T00Z_MSC_GDPS_WindDir_IsbL-0300_LatLon0.15_PT186H.grib2 2026-04-28 04:39 1.2M
20260428T00Z_MSC_GDPS_WindDir_IsbL-0350_LatLon0.15_PT186H.grib2 2026-04-28 04:39 1.2M
20260428T00Z_MSC_GDPS_WindDir_IsbL-0400_LatLon0.15_PT186H.grib2 2026-04-28 04:39 1.3M
20260428T00Z_MSC_GDPS_WindDir_IsbL-0450_LatLon0.15_PT186H.grib2 2026-04-28 04:39 1.3M
20260428T00Z_MSC_GDPS_WindDir_IsbL-0500_LatLon0.15_PT186H.grib2 2026-04-28 04:39 1.3M
20260428T00Z_MSC_GDPS_WindDir_IsbL-0550_LatLon0.15_PT186H.grib2 2026-04-28 04:39 1.4M
20260428T00Z_MSC_GDPS_WindDir_IsbL-0600_LatLon0.15_PT186H.grib2 2026-04-28 04:39 1.4M
20260428T00Z_MSC_GDPS_WindDir_IsbL-0650_LatLon0.15_PT186H.grib2 2026-04-28 04:39 1.5M
20260428T00Z_MSC_GDPS_WindDir_IsbL-0700_LatLon0.15_PT186H.grib2 2026-04-28 04:39 1.6M
20260428T00Z_MSC_GDPS_WindDir_IsbL-0750_LatLon0.15_PT186H.grib2 2026-04-28 04:39 1.7M
20260428T00Z_MSC_GDPS_WindDir_IsbL-0800_LatLon0.15_PT186H.grib2 2026-04-28 04:39 1.8M
20260428T00Z_MSC_GDPS_WindDir_IsbL-0850_LatLon0.15_PT186H.grib2 2026-04-28 04:39 1.9M
20260428T00Z_MSC_GDPS_WindDir_IsbL-0875_LatLon0.15_PT186H.grib2 2026-04-28 04:39 2.0M
20260428T00Z_MSC_GDPS_WindDir_IsbL-0900_LatLon0.15_PT186H.grib2 2026-04-28 04:39 2.0M
20260428T00Z_MSC_GDPS_WindDir_IsbL-0925_LatLon0.15_PT186H.grib2 2026-04-28 04:39 2.0M
20260428T00Z_MSC_GDPS_WindDir_IsbL-0950_LatLon0.15_PT186H.grib2 2026-04-28 04:39 2.0M
20260428T00Z_MSC_GDPS_WindDir_IsbL-0970_LatLon0.15_PT186H.grib2 2026-04-28 04:39 2.0M
20260428T00Z_MSC_GDPS_WindDir_IsbL-0985_LatLon0.15_PT186H.grib2 2026-04-28 04:39 2.0M
20260428T00Z_MSC_GDPS_WindDir_IsbL-1000_LatLon0.15_PT186H.grib2 2026-04-28 04:39 2.1M
20260428T00Z_MSC_GDPS_WindDir_IsbL-1015_LatLon0.15_PT186H.grib2 2026-04-28 04:39 2.0M
20260428T00Z_MSC_GDPS_WindGust-Max_AGL-10m_LatLon0.15_PT186H.grib2 2026-04-28 04:39 2.2M
20260428T00Z_MSC_GDPS_WindGust-Min_AGL-10m_LatLon0.15_PT186H.grib2 2026-04-28 04:39 2.2M
20260428T00Z_MSC_GDPS_WindGust_AGL-10m_LatLon0.15_PT186H.grib2 2026-04-28 04:39 2.2M
20260428T00Z_MSC_GDPS_WindSpeed_AGL-10m_LatLon0.15_PT186H.grib2 2026-04-28 04:39 1.1M
20260428T00Z_MSC_GDPS_WindSpeed_AGL-120m_LatLon0.15_PT186H.grib2 2026-04-28 04:39 1.2M
20260428T00Z_MSC_GDPS_WindSpeed_AGL-40m_LatLon0.15_PT186H.grib2 2026-04-28 04:39 1.2M
20260428T00Z_MSC_GDPS_WindSpeed_AGL-80m_LatLon0.15_PT186H.grib2 2026-04-28 04:39 1.2M
20260428T00Z_MSC_GDPS_WindSpeed_IsbL-0001_LatLon0.15_PT186H.grib2 2026-04-28 04:39 647K
20260428T00Z_MSC_GDPS_WindSpeed_IsbL-0005_LatLon0.15_PT186H.grib2 2026-04-28 04:39 608K
20260428T00Z_MSC_GDPS_WindSpeed_IsbL-0010_LatLon0.15_PT186H.grib2 2026-04-28 04:39 622K
20260428T00Z_MSC_GDPS_WindSpeed_IsbL-0020_LatLon0.15_PT186H.grib2 2026-04-28 04:39 658K
20260428T00Z_MSC_GDPS_WindSpeed_IsbL-0030_LatLon0.15_PT186H.grib2 2026-04-28 04:39 859K
20260428T00Z_MSC_GDPS_WindSpeed_IsbL-0050_LatLon0.15_PT186H.grib2 2026-04-28 04:39 897K
20260428T00Z_MSC_GDPS_WindSpeed_IsbL-0100_LatLon0.15_PT186H.grib2 2026-04-28 04:39 1.2M
20260428T00Z_MSC_GDPS_WindSpeed_IsbL-0150_LatLon0.15_PT186H.grib2 2026-04-28 04:39 943K
20260428T00Z_MSC_GDPS_WindSpeed_IsbL-0175_LatLon0.15_PT186H.grib2 2026-04-28 04:39 1.0M
20260428T00Z_MSC_GDPS_WindSpeed_IsbL-0200_LatLon0.15_PT186H.grib2 2026-04-28 04:39 1.1M
20260428T00Z_MSC_GDPS_WindSpeed_IsbL-0225_LatLon0.15_PT186H.grib2 2026-04-28 04:39 1.1M
20260428T00Z_MSC_GDPS_WindSpeed_IsbL-0250_LatLon0.15_PT186H.grib2 2026-04-28 04:39 1.1M
20260428T00Z_MSC_GDPS_WindSpeed_IsbL-0275_LatLon0.15_PT186H.grib2 2026-04-28 04:39 1.1M
20260428T00Z_MSC_GDPS_WindSpeed_IsbL-0300_LatLon0.15_PT186H.grib2 2026-04-28 04:39 1.1M
20260428T00Z_MSC_GDPS_WindSpeed_IsbL-0350_LatLon0.15_PT186H.grib2 2026-04-28 04:39 1.1M
20260428T00Z_MSC_GDPS_WindSpeed_IsbL-0400_LatLon0.15_PT186H.grib2 2026-04-28 04:39 1.1M
20260428T00Z_MSC_GDPS_WindSpeed_IsbL-0450_LatLon0.15_PT186H.grib2 2026-04-28 04:39 1.1M
20260428T00Z_MSC_GDPS_WindSpeed_IsbL-0500_LatLon0.15_PT186H.grib2 2026-04-28 04:39 1.1M
20260428T00Z_MSC_GDPS_WindSpeed_IsbL-0550_LatLon0.15_PT186H.grib2 2026-04-28 04:39 1.1M
20260428T00Z_MSC_GDPS_WindSpeed_IsbL-0600_LatLon0.15_PT186H.grib2 2026-04-28 04:39 1.4M
20260428T00Z_MSC_GDPS_WindSpeed_IsbL-0650_LatLon0.15_PT186H.grib2 2026-04-28 04:39 1.5M
20260428T00Z_MSC_GDPS_WindSpeed_IsbL-0700_LatLon0.15_PT186H.grib2 2026-04-28 04:39 1.5M
20260428T00Z_MSC_GDPS_WindSpeed_IsbL-0750_LatLon0.15_PT186H.grib2 2026-04-28 04:39 1.6M
20260428T00Z_MSC_GDPS_WindSpeed_IsbL-0800_LatLon0.15_PT186H.grib2 2026-04-28 04:39 1.8M
20260428T00Z_MSC_GDPS_WindSpeed_IsbL-0850_LatLon0.15_PT186H.grib2 2026-04-28 04:39 1.8M
20260428T00Z_MSC_GDPS_WindSpeed_IsbL-0875_LatLon0.15_PT186H.grib2 2026-04-28 04:39 1.8M
20260428T00Z_MSC_GDPS_WindSpeed_IsbL-0900_LatLon0.15_PT186H.grib2 2026-04-28 04:39 1.9M
20260428T00Z_MSC_GDPS_WindSpeed_IsbL-0925_LatLon0.15_PT186H.grib2 2026-04-28 04:39 1.9M
20260428T00Z_MSC_GDPS_WindSpeed_IsbL-0950_LatLon0.15_PT186H.grib2 2026-04-28 04:39 1.9M
20260428T00Z_MSC_GDPS_WindSpeed_IsbL-0970_LatLon0.15_PT186H.grib2 2026-04-28 04:39 1.9M
20260428T00Z_MSC_GDPS_WindSpeed_IsbL-0985_LatLon0.15_PT186H.grib2 2026-04-28 04:39 1.9M
20260428T00Z_MSC_GDPS_WindSpeed_IsbL-1000_LatLon0.15_PT186H.grib2 2026-04-28 04:39 1.8M
20260428T00Z_MSC_GDPS_WindSpeed_IsbL-1015_LatLon0.15_PT186H.grib2 2026-04-28 04:39 1.8M
20260428T00Z_MSC_GDPS_WindU_AGL-10m_LatLon0.15_PT186H.grib2 2026-04-28 04:39 1.3M
20260428T00Z_MSC_GDPS_WindU_AGL-120m_LatLon0.15_PT186H.grib2 2026-04-28 04:39 972K
20260428T00Z_MSC_GDPS_WindU_AGL-40m_LatLon0.15_PT186H.grib2 2026-04-28 04:39 967K
20260428T00Z_MSC_GDPS_WindU_AGL-80m_LatLon0.15_PT186H.grib2 2026-04-28 04:39 973K
20260428T00Z_MSC_GDPS_WindU_IsbL-0001_LatLon0.15_PT186H.grib2 2026-04-28 04:39 496K
20260428T00Z_MSC_GDPS_WindU_IsbL-0005_LatLon0.15_PT186H.grib2 2026-04-28 04:39 685K
20260428T00Z_MSC_GDPS_WindU_IsbL-0010_LatLon0.15_PT186H.grib2 2026-04-28 04:39 695K
20260428T00Z_MSC_GDPS_WindU_IsbL-0020_LatLon0.15_PT186H.grib2 2026-04-28 04:39 725K
20260428T00Z_MSC_GDPS_WindU_IsbL-0030_LatLon0.15_PT186H.grib2 2026-04-28 04:39 733K
20260428T00Z_MSC_GDPS_WindU_IsbL-0050_LatLon0.15_PT186H.grib2 2026-04-28 04:39 688K
20260428T00Z_MSC_GDPS_WindU_IsbL-0100_LatLon0.15_PT186H.grib2 2026-04-28 04:39 865K
20260428T00Z_MSC_GDPS_WindU_IsbL-0150_LatLon0.15_PT186H.grib2 2026-04-28 04:39 1.0M
20260428T00Z_MSC_GDPS_WindU_IsbL-0175_LatLon0.15_PT186H.grib2 2026-04-28 04:39 1.0M
20260428T00Z_MSC_GDPS_WindU_IsbL-0200_LatLon0.15_PT186H.grib2 2026-04-28 04:39 845K
20260428T00Z_MSC_GDPS_WindU_IsbL-0225_LatLon0.15_PT186H.grib2 2026-04-28 04:39 858K
20260428T00Z_MSC_GDPS_WindU_IsbL-0250_LatLon0.15_PT186H.grib2 2026-04-28 04:39 861K
20260428T00Z_MSC_GDPS_WindU_IsbL-0275_LatLon0.15_PT186H.grib2 2026-04-28 04:39 888K
20260428T00Z_MSC_GDPS_WindU_IsbL-0300_LatLon0.15_PT186H.grib2 2026-04-28 04:39 879K
20260428T00Z_MSC_GDPS_WindU_IsbL-0350_LatLon0.15_PT186H.grib2 2026-04-28 04:39 893K
20260428T00Z_MSC_GDPS_WindU_IsbL-0400_LatLon0.15_PT186H.grib2 2026-04-28 04:39 1.1M
20260428T00Z_MSC_GDPS_WindU_IsbL-0450_LatLon0.15_PT186H.grib2 2026-04-28 04:39 1.1M
20260428T00Z_MSC_GDPS_WindU_IsbL-0500_LatLon0.15_PT186H.grib2 2026-04-28 04:39 1.1M
20260428T00Z_MSC_GDPS_WindU_IsbL-0550_LatLon0.15_PT186H.grib2 2026-04-28 04:39 1.1M
20260428T00Z_MSC_GDPS_WindU_IsbL-0600_LatLon0.15_PT186H.grib2 2026-04-28 04:39 1.2M
20260428T00Z_MSC_GDPS_WindU_IsbL-0650_LatLon0.15_PT186H.grib2 2026-04-28 04:39 1.2M
20260428T00Z_MSC_GDPS_WindU_IsbL-0700_LatLon0.15_PT186H.grib2 2026-04-28 04:39 1.2M
20260428T00Z_MSC_GDPS_WindU_IsbL-0750_LatLon0.15_PT186H.grib2 2026-04-28 04:39 1.3M
20260428T00Z_MSC_GDPS_WindU_IsbL-0800_LatLon0.15_PT186H.grib2 2026-04-28 04:39 1.4M
20260428T00Z_MSC_GDPS_WindU_IsbL-0850_LatLon0.15_PT186H.grib2 2026-04-28 04:39 1.4M
20260428T00Z_MSC_GDPS_WindU_IsbL-0875_LatLon0.15_PT186H.grib2 2026-04-28 04:39 1.5M
20260428T00Z_MSC_GDPS_WindU_IsbL-0900_LatLon0.15_PT186H.grib2 2026-04-28 04:39 1.5M
20260428T00Z_MSC_GDPS_WindU_IsbL-0925_LatLon0.15_PT186H.grib2 2026-04-28 04:39 1.5M
20260428T00Z_MSC_GDPS_WindU_IsbL-0950_LatLon0.15_PT186H.grib2 2026-04-28 04:39 1.4M
20260428T00Z_MSC_GDPS_WindU_IsbL-0970_LatLon0.15_PT186H.grib2 2026-04-28 04:39 1.4M
20260428T00Z_MSC_GDPS_WindU_IsbL-0985_LatLon0.15_PT186H.grib2 2026-04-28 04:39 1.4M
20260428T00Z_MSC_GDPS_WindU_IsbL-1000_LatLon0.15_PT186H.grib2 2026-04-28 04:39 1.4M
20260428T00Z_MSC_GDPS_WindU_IsbL-1015_LatLon0.15_PT186H.grib2 2026-04-28 04:39 1.3M
20260428T00Z_MSC_GDPS_WindV_AGL-10m_LatLon0.15_PT186H.grib2 2026-04-28 04:39 1.6M
20260428T00Z_MSC_GDPS_WindV_AGL-120m_LatLon0.15_PT186H.grib2 2026-04-28 04:39 972K
20260428T00Z_MSC_GDPS_WindV_AGL-40m_LatLon0.15_PT186H.grib2 2026-04-28 04:39 1.2M
20260428T00Z_MSC_GDPS_WindV_AGL-80m_LatLon0.15_PT186H.grib2 2026-04-28 04:39 1.2M
20260428T00Z_MSC_GDPS_WindV_IsbL-0001_LatLon0.15_PT186H.grib2 2026-04-28 04:39 776K
20260428T00Z_MSC_GDPS_WindV_IsbL-0005_LatLon0.15_PT186H.grib2 2026-04-28 04:39 758K
20260428T00Z_MSC_GDPS_WindV_IsbL-0010_LatLon0.15_PT186H.grib2 2026-04-28 04:39 877K
20260428T00Z_MSC_GDPS_WindV_IsbL-0020_LatLon0.15_PT186H.grib2 2026-04-28 04:39 927K
20260428T00Z_MSC_GDPS_WindV_IsbL-0030_LatLon0.15_PT186H.grib2 2026-04-28 04:39 931K
20260428T00Z_MSC_GDPS_WindV_IsbL-0050_LatLon0.15_PT186H.grib2 2026-04-28 04:39 972K
20260428T00Z_MSC_GDPS_WindV_IsbL-0100_LatLon0.15_PT186H.grib2 2026-04-28 04:39 1.1M
20260428T00Z_MSC_GDPS_WindV_IsbL-0150_LatLon0.15_PT186H.grib2 2026-04-28 04:39 1.0M
20260428T00Z_MSC_GDPS_WindV_IsbL-0175_LatLon0.15_PT186H.grib2 2026-04-28 04:39 1.0M
20260428T00Z_MSC_GDPS_WindV_IsbL-0200_LatLon0.15_PT186H.grib2 2026-04-28 04:39 1.0M
20260428T00Z_MSC_GDPS_WindV_IsbL-0225_LatLon0.15_PT186H.grib2 2026-04-28 04:39 850K
20260428T00Z_MSC_GDPS_WindV_IsbL-0250_LatLon0.15_PT186H.grib2 2026-04-28 04:39 852K
20260428T00Z_MSC_GDPS_WindV_IsbL-0275_LatLon0.15_PT186H.grib2 2026-04-28 04:39 878K
20260428T00Z_MSC_GDPS_WindV_IsbL-0300_LatLon0.15_PT186H.grib2 2026-04-28 04:39 868K
20260428T00Z_MSC_GDPS_WindV_IsbL-0350_LatLon0.15_PT186H.grib2 2026-04-28 04:39 881K
20260428T00Z_MSC_GDPS_WindV_IsbL-0400_LatLon0.15_PT186H.grib2 2026-04-28 04:39 882K
20260428T00Z_MSC_GDPS_WindV_IsbL-0450_LatLon0.15_PT186H.grib2 2026-04-28 04:39 1.1M
20260428T00Z_MSC_GDPS_WindV_IsbL-0500_LatLon0.15_PT186H.grib2 2026-04-28 04:39 1.1M
20260428T00Z_MSC_GDPS_WindV_IsbL-0550_LatLon0.15_PT186H.grib2 2026-04-28 04:39 1.1M
20260428T00Z_MSC_GDPS_WindV_IsbL-0600_LatLon0.15_PT186H.grib2 2026-04-28 04:39 1.1M
20260428T00Z_MSC_GDPS_WindV_IsbL-0650_LatLon0.15_PT186H.grib2 2026-04-28 04:39 1.1M
20260428T00Z_MSC_GDPS_WindV_IsbL-0700_LatLon0.15_PT186H.grib2 2026-04-28 04:39 1.2M
20260428T00Z_MSC_GDPS_WindV_IsbL-0750_LatLon0.15_PT186H.grib2 2026-04-28 04:39 1.2M
20260428T00Z_MSC_GDPS_WindV_IsbL-0800_LatLon0.15_PT186H.grib2 2026-04-28 04:39 1.3M
20260428T00Z_MSC_GDPS_WindV_IsbL-0850_LatLon0.15_PT186H.grib2 2026-04-28 04:39 1.4M
20260428T00Z_MSC_GDPS_WindV_IsbL-0875_LatLon0.15_PT186H.grib2 2026-04-28 04:39 1.4M
20260428T00Z_MSC_GDPS_WindV_IsbL-0900_LatLon0.15_PT186H.grib2 2026-04-28 04:39 1.4M
20260428T00Z_MSC_GDPS_WindV_IsbL-0925_LatLon0.15_PT186H.grib2 2026-04-28 04:39 1.4M
20260428T00Z_MSC_GDPS_WindV_IsbL-0950_LatLon0.15_PT186H.grib2 2026-04-28 04:39 1.4M
20260428T00Z_MSC_GDPS_WindV_IsbL-0970_LatLon0.15_PT186H.grib2 2026-04-28 04:39 1.4M
20260428T00Z_MSC_GDPS_WindV_IsbL-0985_LatLon0.15_PT186H.grib2 2026-04-28 04:39 1.4M
20260428T00Z_MSC_GDPS_WindV_IsbL-1000_LatLon0.15_PT186H.grib2 2026-04-28 04:39 1.7M
20260428T00Z_MSC_GDPS_WindV_IsbL-1015_LatLon0.15_PT186H.grib2 2026-04-28 04:39 1.6M